Location: Croagnes
(43.9363°N, 5.3265°E)
Time: 22:12:27
(UTC+00:00)

Meteor 1-16 Rocket - Pass Details

Date: 04 October 2020
Orbit: 790 x 908 km, 81.2° (Epoch: 22 October)

Event Time Altitude Azimuth Distance (km) Brightness Sun altitude
Rises 18:40:24 0° 159° (SSE) 3,520 7.1 -16.4°
Enters shadow 18:40:45 - 158° (SSE) 3,395 7.0 -16.5°
Exits shadow 18:46:16 25° 123° (ESE) 1,717 5.3 -17.5°
Maximum altitude 18:48:13 31° 89° (E) 1,514 5.0 -17.8°
Drops below altitude 10° 18:53:15 10° 30° (NNE) 2,554 6.5 -18.7°
Sets 18:55:55 0° 20° (NNE) 3,481 7.3 -19.2°
